Location: San Antonio
(29.4240°N, 98.4930°W)
Time: 02:03:01
(UTC-05:00)

Courier 1B Rocket - Pass Details

Date: 22 July 2024
Orbit: 920 x 1201 km, 28.2° (Epoch: 20 June)

Event Time Altitude Azimuth Distance (km) Brightness Sun altitude
Rises 21:11:15 0° 275° (W) 4,033 9.6 -8.5°
Maximum altitude 21:20:48 30° 207° (SSW) 1,862 6.5 -10.3°
Drops below altitude 10° 21:26:46 10° 149° (SSE) 2,856 6.9 -11.4°
Enters shadow 21:26:48 10° 149° (SSE) 2,867 6.9 -11.4°
